This is the latest recevied weather packets stored in our database for station/object SR6WXP. If no packets are shown the sender has not sent any weather packets the latest 1 day(s).
| Time | Temp. | Humidity | Pressure | Rain* | Wind** | Luminosity | Snow |
|---|---|---|---|---|---|---|---|
| 1778002541 | 27.22° C | 31% | 982.4 hPa | - | 1.34 m/s, 132° | - | - |
| 1778002301 | 27.78° C | 30% | 982.4 hPa | - | 0.89 m/s, 152° | - | - |
| 1778002057 | 27.78° C | 30% | 982.4 hPa | - | 0.89 m/s, 157° | - | - |
| 1778001816 | 27.78° C | 29% | 982.4 hPa | - | 1.79 m/s, 158° | - | - |
| 1778001576 | 28.33° C | 29% | 982.4 hPa | - | 2.24 m/s, 155° | - | - |
| 1778001335 | 28.33° C | 29% | 982.4 hPa | - | 1.79 m/s, 157° | - | - |
| 1778001095 | 28.33° C | 29% | 982.4 hPa | - | 1.34 m/s, 152° | - | - |
| 1778000854 | 28.89° C | 28% | 982.4 hPa | - | 2.24 m/s, 169° | - | - |
| 1778000614 | 28.89° C | 29% | 982.4 hPa | - | 1.34 m/s, 136° | - | - |
| 1778000374 | 28.89° C | 28% | 982.4 hPa | - | 1.79 m/s, 145° | - | - |
| 1778000132 | 28.89° C | 28% | 982.4 hPa | - | 1.79 m/s, 164° | - | - |
| 1777999890 | 29.44° C | 28% | 982.4 hPa | - | 3.13 m/s, 139° | - | - |
| 1777999650 | 29.44° C | 28% | 982.4 hPa | - | 3.58 m/s, 146° | - | - |
| 1777999410 | 29.44° C | 28% | 982.4 hPa | - | 2.68 m/s, 134° | - | - |
| 1777999170 | 29.44° C | 27% | 982.3 hPa | - | 3.58 m/s, 164° | - | - |
| 1777998928 | 29.44° C | 27% | 982.4 hPa | - | 3.58 m/s, 177° | - | - |
| 1777998688 | 29.44° C | 27% | 982.4 hPa | - | 2.68 m/s, 154° | - | - |
| 1777998448 | 29.44° C | 27% | 982.4 hPa | - | 2.68 m/s, 154° | - | - |
| 1777998208 | 29.44° C | 27% | 982.4 hPa | - | 3.13 m/s, 169° | - | - |
| 1777997968 | 29.44° C | 27% | 982.4 hPa | - | 4.47 m/s, 147° | - | - |
| 1777997726 | 29.44° C | 27% | 982.4 hPa | - | 3.13 m/s, 165° | - | - |
| 1777997486 | 29.44° C | 28% | 982.4 hPa | - | 3.58 m/s, 156° | - | - |
| 1777997246 | 28.89° C | 28% | 982.5 hPa | - | 2.68 m/s, 170° | - | - |
| 1777997006 | 28.89° C | 28% | 982.4 hPa | - | 1.34 m/s, 151° | - | - |
| 1777996766 | 28.89° C | 28% | 982.5 hPa | - | 2.24 m/s, 176° | - | - |
* Rain since midnight (hover to see other rain measurements)
** Current wind speed in m/s (hover to see current wind gust speed)